• Join FlightAware (Why Join?)
  • Login
  • US Flag GB Flag 
05:15 EDT


 

Airport Tracker/Info


-or-


 

Live Flight TrackerFlight Track Log ✈ SWA3294 ✈ 13-Apr-2013 ✈ KCLE - KMDW

Flight Track Log - Related Links

Times and Time Zones

All times are in EDT time to prevent confusion due to time zone crossing. See the SWA3294 flight status page for this flight to view local times or setup timezone preferences in your user account.

Time Position Orientation Groundspeed Altitude Reporting Facility
EDT Latitude Longitude Course Direction KTS MPH feet Rate Location/Type
11:18 41.3981 -81.8731 252° West 136 157 1,800  Level Cleveland Center
11:18 41.3894 -81.9089 252° West 162 186 3,000 1,920 Climbing Cleveland Center
11:20 41.3739 -81.9917 256° West 213 245 5,600 3,000 Climbing Cleveland Center
11:21 41.3622 -82.0769 260° West 246 283 9,700 3,000 Climbing Cleveland Center
11:22 41.3550 -82.1628 264° West 246 283 11,700 2,700 Climbing Cleveland Center
11:23 41.3617 -82.2792 274° West 290 334 15,200 3,420 Climbing Cleveland Center
11:24 41.3681 -82.3953 274° West 315 362 18,600 3,240 Climbing Cleveland Center
11:25 41.3744 -82.5147 274° West 321 369 21,700 2,940 Climbing Cleveland Center
11:26 41.3808 -82.6339 274° West 327 376 24,500 2,400 Climbing Cleveland Center
11:27 41.3867 -82.7639 273° West 341 392 26,500 2,400 Climbing Cleveland Center
11:28 41.3944 -82.9000 274° West 346 398 29,400 1,740 Climbing Cleveland Center
11:29 41.4022 -83.0275 275° West 351 404 30,000 300 Climbing Cleveland Center
11:30 41.4100 -83.1553 275° West 351 404 30,000  Level Cleveland Center
11:31 41.4131 -83.2828 272° West 346 398 30,000  Level Cleveland Center
11:32 41.4228 -83.4078 276° West 346 398 30,000  Level Cleveland Center
11:33 41.4278 -83.5381 273° West 351 404 30,000  Level Cleveland Center
11:34 41.4347 -83.6714 274° West 351 404 30,000  Level Cleveland Center
11:35 41.4394 -83.8019 273° West 351 404 30,000  Level Cleveland Center
11:36 41.4461 -83.9325 274° West 351 404 30,000  Level Cleveland Center
11:38 41.4614 -84.2056 274° West 361 415 30,000  Level Chicago Center
11:39 41.4686 -84.3394 274° West 363 418 30,000  Level Chicago Center
11:40 41.4722 -84.4758 272° West 368 423 30,000  Level Chicago Center
11:41 41.4778 -84.6125 273° West 370 426 30,000  Level Chicago Center
11:42 41.4833 -84.7500 273° West 371 427 30,000  Level Chicago Center
11:43 41.4881 -84.8856 273° West 367 422 30,000  Level Chicago Center
11:44 41.4947 -85.0481 273° West 366 421 30,000 -600 Level Chicago Center
11:45 41.4992 -85.1758 273° West 348 400 28,800 -1,620 Descending Chicago Center
11:46 41.5031 -85.2967 273° West 327 376 26,800 -1,800 Descending Chicago Center
11:47 41.5075 -85.4133 273° West 314 361 25,100 -1,320 Descending Chicago Center
11:48 41.5097 -85.5258 272° West 300 345 24,100 -1,020 Descending Chicago Center
11:49 41.5136 -85.6353 273° West 294 338 23,100 -1,260 Descending Chicago Center
11:50 41.5167 -85.7400 272° West 284 327 21,600 -1,620 Descending Chicago Center
11:51 41.5194 -85.8389 272° West 269 310 19,900 -1,620 Descending Chicago Center
11:52 41.5222 -85.9350 272° West 263 303 18,300 -1,560 Descending Chicago Center
11:53 41.5253 -86.0322 272° West 263 303 16,700 -1,620 Descending Chicago Center
11:54 41.5239 -86.1311 269° West 266 306 15,000 -1,680 Descending Chicago Center
11:55 41.5239 -86.2444 270° West 257 296 13,300 -1,620 Descending Chicago Center
11:56 41.5228 -86.3378 269° West 254 292 11,800 -1,140 Descending Chicago Center
11:57 41.5228 -86.4286 270° West 248 285 11,000 -540 Descending Chicago Center
11:58 41.5211 -86.5167 269° West 240 276 10,800 -540 Descending Chicago Center
11:59 41.5214 -86.6047 270° West 239 275 10,000 -420 Descending Chicago Center
12:00 41.5208 -86.6947 270° West 242 278 10,000 -420 Level Chicago Center
12:01 41.5197 -86.8006 269° West 242 278 9,200 -1,020 Descending Chicago Center
12:02 41.5192 -86.8867 270° West 235 270 8,000 -1,560 Descending Chicago Center
12:03 41.5181 -86.9719 269° West 231 266 6,100 -1,800 Descending Chicago Center
12:05 41.5175 -87.0636 270° West 242 278 4,400 -1,200 Descending Chicago Center
12:05 41.5333 -87.1333 287° West 232 267 4,000 -240 Descending Chicago TRACON
12:06 41.5500 -87.2000 288° West 233 268 4,000  Level Chicago TRACON
12:07 41.5833 -87.2833 298° West 229 264 4,000  Level Chicago TRACON
12:08 41.6000 -87.3667 285° West 230 265 4,000  Level Chicago TRACON
12:09 41.6114 -87.3978 296° West 230 265 4,000  Level Chicago Center
12:10 41.6339 -87.4772 291° West 230 265 4,000  Level Chicago Center
12:11 41.6547 -87.5522 290° West 226 260 4,000 -240 Level Chicago Center
12:12 41.6819 -87.6064 304° West 204 235 3,600 -720 Descending Chicago Center
12:13 41.7147 -87.6550 312° West 188 216 2,600 -900 Descending Chicago Center
12:14 41.7442 -87.6956 314° West 171 197 1,800 -840 Descending Chicago Center
12:15 41.7681 -87.7286 314° West 148 170 1,000 -840 Descending Chicago Center
12:17 41.7833 -87.7500 334° Northwest  Level FlightAware Approximate